Dewpoint
56 60 64 66 66 67 67 67 67 66 66 66 65 65 65 63 62 61 61 60 60 59 59 59 59 60 61 61 61 61 59 59
57 59 60 62 63 65 66 66 66 65 65 65 65 65 64 63 63 61 59 58 58 57 57 57 57 58 60 60 60 60 56 57
57 55 58 62 61 62 65 66 66 65 64 64 63 62 62 61 61 61 59 59 59 59 58 58 58 59 59 60 60 54 54 51
59 60 59 57 50 61 63 61 63 63 62 62 62 62 60 59 61 62 62 61 61 61 61 61 60 55 55 59 56 53 50 49
60 62 61 59 58 56 58 59 59 62 64 61 62 60 63 61 61 61 61 61 60 60 58 58 55 54 51 51 50 48 49 47
60 61 61 60 59 59 60 59 58 60 59 61 61 60 60 59 57 55 55 54 54 54 54 55 55 50 48 48 48 48 45 46
57 61 60 62 59 62 61 60 59 59 58 59 59 58 59 58 56 55 54 54 53 53 52 52 52 50 49 46 45 46 47 46
60 60 60 57 58 58 60 58 58 58 57 56 57 57 57 57 55 55 54 53 53 52 51 52 52 51 49 48 46 45 44 46
58 60 58 57 57 57 57 53 52 54 55 55 54 55 55 56 55 55 54 55 54 53 53 51 51 50 49 49 48 46 46 46
61 55 57 56 57 54 54 55 55 54 55 54 54 53 53 55 54 55 56 56 55 53 53 51 50 50 49 49 47 45 45 47
53 58 56 54 55 53 54 54 53 52 51 53 53 52 54 53 53 54 55 53 53 52 50 52 51 50 48 47 48 47 45 41
54 58 55 53 55 53 51 50 51 51 52 50 51 51 50 51 49 51 52 49 49 50 50 49 49 49 47 46 48 48 47 47
53 55 53 51 50 50 49 49 49 50 49 49 48 49 48 48 48 47 47 46 48 48 47 46 46 47 46 45 46 47 49 48
49 47 49 48 46 49 49 49 48 48 49 49 49 48 47 43 46 46 46 46 46 47 48 45 44 45 44 43 40 41 43 45
46 46 46 48 49 46 46 47 47 46 45 46 47 47 45 44 45 46 46 46 44 45 45 44 43 43 44 42 38 37 39 42
47 47 45 46 48 47 46 45 45 47 49 46 45 45 45 42 42 45 45 46 44 45 42 45 44 41 43 43 43 42 40 39
49 46 45 46 47 47 47 48 48 46 47 46 44 44 43 41 42 43 44 44 44 45 44 44 44 42 41 40 39 38 39 38
49 46 44 45 47 48 46 45 45 45 45 43 41 40 40 41 41 44 44 44 44 44 44 42 42 42 41 41 39 38 37 35
47 46 44 45 45 45 47 47 46 43 42 41 39 39 40 39 42 42 42 42 42 42 43 42 41 40 39 40 40 40 38 36
47 45 44 44 46 46 47 46 43 42 42 40 40 39 40 41 41 41 41 41 41 41 41 40 39 40 38 39 39 39 39 39
Lifted_Index
-0 -1 -1 -1 -1 -1 -2 -2 -2 -1 -1 -1 -1 -1 -1 -0 -0 0 1 1 2 2 3 3 3 3 2 2 3 2 1 -0
-1 -1 -1 -1 -1 -1 -1 -1 -1 -1 -1 -1 -1 -1 -1 -1 -0 0 1 1 2 2 3 3 3 3 2 3 3 2 1 1
-1 -1 -1 -1 -0 -0 -1 -1 -1 -1 -1 -1 -2 -2 -1 -1 -0 0 1 1 2 2 2 2 3 3 3 3 3 2 2 2
-2 -1 -1 -0 0 -0 -1 -1 -1 -2 -2 -2 -2 -2 -2 -1 -1 -0 0 1 1 1 2 2 2 2 3 4 3 3 4 4
-3 -2 -1 -0 -0 -0 -1 -1 -1 -2 -2 -2 -2 -2 -2 -1 -1 -0 0 1 1 1 1 2 2 3 4 5 5 5 5 5
-3 -3 -2 -1 -1 -1 -1 -1 -1 -1 -2 -2 -1 -1 -1 -1 0 1 1 2 2 2 2 2 2 3 5 6 6 6 6 6
-3 -3 -2 -2 -1 -2 -2 -1 -1 -1 -1 -0 -0 -0 -0 0 1 1 2 2 2 3 3 3 3 4 5 6 6 7 7 7
-3 -3 -2 -1 -1 -1 -1 -1 -0 0 0 1 1 0 0 1 1 2 2 2 2 3 3 3 3 4 4 5 6 7 7 7
-3 -3 -2 -2 -1 -1 -0 0 1 1 1 1 1 1 1 1 2 2 2 2 2 3 3 3 3 3 4 5 5 6 7 7
-2 -3 -2 -2 -1 -1 0 1 1 1 2 2 2 2 2 2 2 2 2 2 2 3 3 3 3 3 4 4 5 5 6 6
-2 -2 -2 -1 -1 -0 0 1 1 2 2 2 3 3 3 4 4 4 3 3 3 3 3 3 4 4 4 4 5 5 5 5
-3 -2 -1 -1 -0 -0 1 1 1 2 2 3 3 4 4 5 6 5 5 5 5 5 5 5 5 5 4 5 4 4 4 5
-2 -2 -1 0 1 1 1 2 2 2 2 3 4 5 5 6 7 7 6 6 6 6 6 6 6 5 5 5 5 5 4 4
-1 -1 -0 1 2 2 2 2 2 2 3 4 4 5 5 6 7 7 7 6 6 6 6 6 6 5 5 5 5 5 5 4
-0 0 1 1 2 3 3 3 3 3 3 4 4 5 5 6 6 7 6 6 6 6 6 6 6 6 5 5 5 5 5 5
1 2 2 2 3 3 3 3 4 4 4 4 5 6 6 7 7 7 6 6 6 6 6 6 6 6 6 5 5 5 5 5
2 2 3 3 3 3 4 4 4 4 5 5 6 7 7 7 7 7 6 6 6 5 5 5 5 6 6 6 6 6 6 6
2 2 3 3 3 4 4 5 5 5 6 7 7 7 8 8 7 7 6 6 6 6 6 6 6 6 6 6 7 7 7 7
2 2 2 3 4 4 5 5 6 6 7 7 8 8 8 7 7 6 6 6 6 6 6 6 6 6 6 6 6 6 6 6
2 2 2 3 4 4 5 5 6 6 7 7 8 8 8 7 7 7 7 7 7 7 7 7 6 6 6 6 6 6 6 6